Powrót do katalogu

FENGYUN 1C DEB

AktywnySSO
NORAD 29940·DEBRIS·🇨🇳 China

Wystrzelony May 10, 1999 z Taiyuan Satellite Launch Center

Loading…

Następne Przeloty (najbliższe 24 godziny)

TLE

ŚwieżeSource: Space-Track

Epoka: Sep 13, 2026, 00:18 UTC

1 29940U 99025JN  26256.01269721  .00000699  00000-0  34317-3 0  9993
2 29940  98.6193 263.2705 0074326  29.7877  24.9428 14.19406759 13558

Śledź FENGYUN 1C DEB w czasie rzeczywistym z AllMySat

Download on the App Store